Вернуться в каталог

SL-16 DEB

LostLEO
NORAD 42247·DEBRIS·🇷🇺 Russia

Запущен Mar 26, 1993 с Baikonur Cosmodrome

Loading…

Ближайшие Пролёты (ближайшие 24 часа)

TLE

УстаревшееSource: Space-Track

Эпоха: Mar 16, 2025, 10:15 UTC

1 42247U 93016DB  25075.42757853  .00210602  00000-0  17909-1 0  9996
2 42247  70.9658  97.9802 0032588  39.6930 320.6610 14.96250917 70488

Отслеживайте SL-16 DEB в реальном времени с AllMySat

Download on the App Store